AE6EO Weather Reports


time (UTC)temp
C
wind
direction
speed
KPH
gust
KPH
rain 1hr
cm
rain 24hr
cm
rain mn
cm
humidity
%
barometer
mb
20260506231517 22 348 6.4 14.5 0.00 0.00 0.00 54 1018.5
20260506230517 23 341 4.8 9.7 0.00 0.00 0.00 54 1018.7
20260506225516 23 334 4.8 14.5 0.00 0.00 0.00 53 1018.8
20260506224515 22 340 4.8 14.5 0.00 0.00 0.00 55 1018.9
20260506223517 23 313 4.8 14.5 0.00 0.00 0.00 54 1019.0
20260506222516 23 352 4.8 12.9 0.00 0.00 0.00 54 1019.1
20260506221515 23 1 6.4 12.9 0.00 0.00 0.00 53 1019.1
20260506220517 23 359 6.4 14.5 0.00 0.00 0.00 53 1019.3
20260506215516 23 354 3.2 12.9 0.00 0.00 0.00 53 1019.4
20260506214515 23 10 4.8 9.7 0.00 0.00 0.00 54 1019.5
20260506213517 22 37 6.4 14.5 0.00 0.00 0.00 54 1019.6
20260506212516 22 4 4.8 9.7 0.00 0.00 0.00 56 1019.7
20260506211515 22 18 8.0 17.7 0.00 0.00 0.00 55 1019.9
20260506210518 22 19 4.8 12.9 0.00 0.00 0.00 57 1019.9
20260506205536 22 319 4.8 12.9 0.00 0.00 0.00 58 1020.0
20260506204515 22 19 6.4 14.5 0.00 0.00 0.00 58 1020.1
20260506203515 21 51 4.8 14.5 0.00 0.00 0.00 57 1020.2
20260506202517 21 312 3.2 6.4 0.00 0.00 0.00 58 1020.3
20260506201536 21 300 3.2 6.4 0.00 0.00 0.00 57 1020.5
20260506200515 21 329 3.2 11.3 0.00 0.00 0.00 58 1020.6
20260506195516 21 39 4.8 14.5 0.00 0.00 0.00 58 1020.7
20260506194517 20 7 6.4 12.9 0.00 0.00 0.00 61 1020.7
20260506193535 20 17 6.4 14.5 0.00 0.00 0.00 63 1020.9
20260506192517 20 351 3.2 8.0 0.00 0.00 0.00 63 1020.9
20260506191536 19 344 4.8 11.3 0.00 0.00 0.00 64 1021.0
20260506190516 19 56 4.8 11.3 0.00 0.00 0.00 64 1021.1
20260506185515 19 337 4.8 11.3 0.00 0.00 0.00 64 1021.2
20260506184517 19 25 4.8 12.9 0.00 0.00 0.00 65 1021.2
20260506183516 18 51 4.8 9.7 0.00 0.00 0.00 65 1021.3
20260506182535 18 2 3.2 6.4 0.00 0.00 0.00 65 1021.4
20260506181537 18 8 3.2 6.4 0.00 0.00 0.00 68 1021.4
20260506180516 17 16 3.2 6.4 0.00 0.00 0.00 69 1021.4
20260506175515 17 329 3.2 8.0 0.00 0.00 0.00 70 1021.4
20260506174517 17 90 3.2 6.4 0.00 0.00 0.00 70 1021.5
20260506173516 17 321 1.6 4.8 0.00 0.00 0.00 72 1021.5
20260506172515 16 311 1.6 4.8 0.00 0.00 0.00 72 1021.6
20260506171515 16 280 3.2 6.4 0.00 0.00 0.00 73 1021.6
20260506170536 16 336 1.6 4.8 0.00 0.00 0.00 75 1021.6
20260506165516 15 291 3.2 6.4 0.00 0.00 0.00 75 1021.7
20260506164515 15 2 3.2 6.4 0.00 0.00 0.00 76 1021.7
20260506163517 15 0 1.6 6.4 0.00 0.00 0.00 77 1021.7
20260506162515 15 313 0.0 1.6 0.00 0.00 0.00 79 1021.6
20260506161515 15 305 1.6 4.8 0.00 0.00 0.00 79 1021.7
20260506160520 15 331 1.6 3.2 0.00 0.00 0.00 80 1021.7
20260506155517 14 321 1.6 3.2 0.00 0.00 0.00 81 1021.6
20260506154515 14 328 1.6 4.8 0.00 0.00 0.00 81 1021.6
20260506153517 14 347 1.6 3.2 0.00 0.00 0.00 82 1021.6
20260506152517 13 323 1.6 4.8 0.00 0.00 0.00 82 1021.6
20260506151521 13 333 1.6 3.2 0.00 0.00 0.00 82 1021.5
20260506150515 13 261 1.6 3.2 0.00 0.00 0.00 82 1021.6
20260506145517 13 222 0.0 1.6 0.00 0.00 0.00 83 1021.6
20260506144516 13 221 0.0 1.6 0.00 0.00 0.00 83 1021.5
20260506143535 13 229 0.0 1.6 0.00 0.00 0.00 84 1021.5
20260506142517 13 225 0.0 1.6 0.00 0.00 0.00 84 1021.4
20260506141516 13 228 0.0 1.6 0.00 0.00 0.00 85 1021.3
20260506140515 13 228 0.0 1.6 0.00 0.00 0.00 85 1021.3
20260506135517 13 0.0 0.0 0.00 0.00 0.00 86 1021.1
20260506134516 12 331 0.0 1.6 0.00 0.00 0.00 86 1020.9
20260506133515 12 332 0.0 1.6 0.00 0.00 0.00 87 1020.8
20260506132515 12 332 0.0 1.6 0.00 0.00 0.00 88 1020.7
20260506131517 12 0.0 0.0 0.00 0.00 0.00 88 1020.7
20260506130556 12 0.0 0.0 0.00 0.00 0.00 88 1020.6
20260506125515 12 0.0 0.0 0.00 0.00 0.00 88 1020.5
20260506124517 12 0.0 0.0 0.00 0.00 0.00 88 1020.4
20260506123516 12 0.0 0.0 0.00 0.00 0.00 88 1020.4
20260506122515 12 0.0 0.0 0.00 0.00 0.00 88 1020.4
20260506121537 12 0.0 0.0 0.00 0.00 0.00 88 1020.4
20260506120517 12 0.0 0.0 0.00 0.00 0.00 88 1020.3
20260506115536 12 0.0 0.0 0.00 0.00 0.00 88 1020.2
20260506114538 12 0.0 0.0 0.00 0.00 0.00 88 1020.2
20260506113536 12 0.0 0.0 0.00 0.00 0.00 87 1020.1
20260506112515 12 0.0 0.0 0.00 0.03 0.00 86 1020.0
20260506111515 12 0.0 0.0 0.00 0.03 0.00 85 1020.0
20260506110520 12 0.0 0.0 0.00 0.03 0.00 85 1020.0
20260506105516 12 0.0 0.0 0.00 0.03 0.00 84 1019.9
20260506104535 13 0.0 0.0 0.00 0.03 0.00 83 1019.8
20260506103557 13 0.0 0.0 0.00 0.03 0.00 82 1019.8
20260506102536 13 0.0 0.0 0.00 0.03 0.00 82 1019.8
20260506101535 13 0.0 0.0 0.00 0.03 0.00 81 1019.8
20260506100517 13 332 0.0 1.6 0.00 0.03 0.00 81 1019.9
20260506095516 13 330 0.0 1.6 0.00 0.03 0.00 81 1019.8
20260506094515 14 325 0.0 1.6 0.00 0.03 0.00 82 1019.8
20260506093534 14 0.0 0.0 0.00 0.03 0.00 82 1019.8
20260506092517 14 0.0 0.0 0.00 0.03 0.00 82 1019.9
20260506091516 14 308 0.0 1.6 0.00 0.03 0.00 81 1019.8
20260506090535 14 308 0.0 1.6 0.00 0.03 0.00 81 1019.7
20260506085517 14 0.0 0.0 0.00 0.03 0.00 81 1019.7
20260506084516 14 0.0 0.0 0.00 0.03 0.00 81 1019.8
20260506083515 14 311 1.6 3.2 0.00 0.03 0.00 80 1019.8
20260506082537 14 312 0.0 3.2 0.00 0.03 0.00 80 1019.8
20260506081557 14 316 0.0 3.2 0.00 0.03 0.00 80 1019.9
20260506080516 14 319 1.6 3.2 0.00 0.03 0.00 80 1019.8
20260506073515 14 327 0.0 3.2 0.00 0.03 0.00 80 1019.6
20260506072515 14 319 0.0 3.2 0.00 0.03 0.00 79 1019.6
20260506071517 14 0.0 0.0 0.00 0.03 0.00 79 1019.5
20260506070516 14 319 0.0 1.6 0.00 0.03 0.00 79 1019.4
20260506062516 15 309 0.0 1.6 0.00 0.03 0.03 76 1019.1
20260506061515 15 314 1.6 4.8 0.00 0.03 0.03 76 1019.1
20260506060516 15 313 1.6 4.8 0.00 0.03 0.03 75 1019.0
20260506050517 15 277 0.0 3.2 0.00 0.03 0.03 75 1018.6
20260506044515 15 279 0.0 4.8 0.00 0.03 0.03 75 1018.4
20260506043517 15 302 1.6 4.8 0.00 0.03 0.03 75 1018.3
20260506042516 15 284 1.6 8.0 0.00 0.03 0.03 75 1018.3
20260506041515 15 278 1.6 6.4 0.00 0.03 0.03 75 1018.1
20260506040517 15 273 1.6 6.4 0.00 0.03 0.03 74 1018.0
20260506035517 15 284 1.6 3.2 0.00 0.03 0.03 74 1017.8
20260506034515 15 253 1.6 4.8 0.00 0.03 0.03 74 1017.7
20260506033515 15 247 1.6 4.8 0.00 0.03 0.03 73 1017.5
20260506032517 15 222 0.0 3.2 0.00 0.03 0.03 72 1017.4
20260506031516 15 255 1.6 4.8 0.00 0.03 0.03 72 1017.3
20260506030515 15 263 1.6 3.2 0.00 0.03 0.03 71 1017.2
20260506025515 15 216 1.6 4.8 0.00 0.03 0.03 71 1017.1
20260506024536 15 264 1.6 4.8 0.00 0.03 0.03 71 1017.0
20260506023516 16 258 1.6 4.8 0.00 0.03 0.03 71 1016.9
20260506022517 16 231 1.6 6.4 0.00 0.03 0.03 71 1016.9
20260506021517 16 261 1.6 6.4 0.00 0.03 0.03 70 1016.8
20260506020516 16 246 1.6 6.4 0.00 0.03 0.03 70 1016.8
20260506015535 16 235 1.6 8.0 0.00 0.03 0.03 70 1016.9
20260506014517 16 210 1.6 6.4 0.00 0.03 0.03 70 1016.9
20260506013516 16 237 1.6 11.3 0.00 0.03 0.03 70 1016.9
20260506012515 16 212 1.6 3.2 0.00 0.03 0.03 70 1016.8
20260506011517 16 211 1.6 6.4 0.00 0.03 0.03 71 1016.8
20260506010516 16 207 1.6 8.0 0.00 0.03 0.03 70 1016.8
20260506005515 16 215 1.6 8.0 0.00 0.03 0.03 70 1016.7
20260506004517 16 209 1.6 6.4 0.00 0.03 0.03 70 1016.8
20260506003516 16 203 3.2 11.3 0.00 0.03 0.03 70 1016.7
20260506002516 16 238 1.6 6.4 0.00 0.03 0.03 70 1016.6
20260506001518 16 268 1.6 6.4 0.00 0.03 0.03 69 1016.4
20260505235516 17 230 3.2 6.4 0.00 0.03 0.03 68 1016.3
20260505234515 17 202 1.6 6.4 0.00 0.03 0.03 66 1016.3
20260505233516 17 198 1.6 3.2 0.00 0.03 0.03 66 1016.3
20260505232516 17 182 1.6 6.4 0.00 0.03 0.03 66 1016.4